Plato, MN

7:28 AM CST on February 07, 2016 (GMT -0600)
Glencoe Municipal

Weather History for KGYL - September, 2013

Change the Weather History Date:

Monday, September 23, 2013

  Actual Average (KHCD) Record (KHCD)
Temperature  
Mean Temperature 64 °F -  
Max Temperature 76 °F 66 °F 87 °F (2007)
Min Temperature 52 °F 42 °F 29 °F (1983)
Degree Days  
Heating Degree Days 2    
Growing Degree Days 14 (Base 50)    
Moisture  
Dew Point 48 °F    
Average Humidity 60    
Maximum Humidity 81    
Minimum Humidity 35    
Precipitation  
Precipitation 0.00 in - - ()
Sea Level Pressure  
Sea Level Pressure 29.88 in    
Wind  
Wind Speed 10 mph (SE)    
Max Wind Speed 21 mph    
Max Gust Speed 25 mph    
Visibility 10 miles    
Events      
Averages and records for this station are not official NWS values.
T = Trace of Precipitation, MM = Missing Value Source: NWS Daily Summary

Daily Weather History Graph

Daily Weather History Graph

Search for Another Location

Airport or City:

Trip Planner

Search our weather history database for the weather conditions in past years. The results will help you decide how hot, cold, wet, or windy it might be!

Date:

Astronomy

Sep. 23, 2013 Rise Set
Actual Time 7:04 AM CDT 7:11 PM CDT
Civil Twilight 6:35 AM CDT 7:40 PM CDT
Nautical Twilight 6:01 AM CDT 8:14 PM CDT
Astronomical Twilight 5:26 AM CDT 8:49 PM CDT
Moon 9:32 PM CDT (9/23) 11:36 AM CDT (9/23)
Length of Visible Light 13h 04m
Length of Day
12h 06m
Waning Gibbous, 81% of the Moon is Illuminated
Sep 23
Waning Gibbous
Sep 26
Last Quarter
Oct 4
New
Oct 11
First Quarter
Oct 18
Full

Hourly Weather History & Observations

Time (CDT) Temp. Dew Point Humidity Pressure Visibility Wind Dir Wind Speed Gust Speed Precip Events Conditions
12:13 AM 62.6 °F 51.1 °F 66% 29.86 in 10.0 mi SSE 8.1 mph - N/A   Clear
12:32 AM 62.2 °F 50.9 °F 66% 29.86 in 10.0 mi SE 8.1 mph - N/A   Clear
12:53 AM 61.7 °F 50.9 °F 68% 29.87 in 10.0 mi SE 8.1 mph - N/A   Clear
1:13 AM 61.5 °F 50.7 °F 68% 29.87 in 10.0 mi SE 9.2 mph - N/A   Clear
1:33 AM 60.8 °F 50.4 °F 68% 29.88 in 10.0 mi SE 6.9 mph - N/A   Clear
1:53 AM 59.9 °F 50.2 °F 70% 29.88 in 10.0 mi SE 6.9 mph - N/A   Clear
2:13 AM 59.4 °F 50.0 °F 71% 29.89 in 10.0 mi SE 5.8 mph - N/A   Clear
2:32 AM 59.2 °F 50.0 °F 72% 29.89 in 10.0 mi SE 6.9 mph - N/A   Clear
2:53 AM 59.0 °F 49.6 °F 71% 29.89 in 10.0 mi SE 8.1 mph - N/A   Clear
3:12 AM 58.5 °F 49.5 °F 72% 29.89 in 10.0 mi SE 8.1 mph - N/A   Clear
3:33 AM 58.1 °F 49.1 °F 72% 29.88 in 10.0 mi SE 6.9 mph - N/A   Clear
3:53 AM 57.2 °F 49.1 °F 74% 29.88 in 10.0 mi ESE 8.1 mph - N/A   Clear
4:13 AM 56.5 °F 48.7 °F 75% 29.88 in 10.0 mi SE 6.9 mph - N/A   Clear
4:33 AM 56.3 °F 48.4 °F 75% 29.88 in 10.0 mi SE 8.1 mph - N/A   Clear
4:53 AM 56.3 °F 48.2 °F 74% 29.87 in 10.0 mi ESE 8.1 mph - N/A   Clear
5:12 AM 55.8 °F 48.2 °F 76% 29.88 in 10.0 mi SE 8.1 mph - N/A   Clear
5:32 AM 55.4 °F 47.8 °F 76% 29.88 in 10.0 mi SE 6.9 mph - N/A   Clear
5:53 AM 54.9 °F 47.7 °F 77% 29.89 in 10.0 mi ESE 6.9 mph - N/A   Clear
6:12 AM 53.8 °F 47.5 °F 79% 29.90 in 10.0 mi ESE 8.1 mph - N/A   Clear
6:33 AM 53.8 °F 47.5 °F 79% 29.90 in 10.0 mi SE 6.9 mph - N/A   Clear
6:52 AM 53.8 °F 47.5 °F 79% 29.90 in 10.0 mi SE 6.9 mph - N/A   Clear
7:13 AM 52.9 °F 47.3 °F 81% 29.90 in 10.0 mi ESE 9.2 mph - N/A   Clear
7:32 AM 53.2 °F 47.5 °F 81% 29.90 in 10.0 mi ESE 9.2 mph - N/A   Clear
7:53 AM 54.5 °F 47.8 °F 78% 29.91 in 10.0 mi ESE 10.4 mph - N/A   Clear
8:13 AM 55.8 °F 48.2 °F 76% 29.91 in 10.0 mi ESE 10.4 mph 16.1 mph N/A   Clear
8:32 AM 56.8 °F 48.2 °F 73% 29.91 in 10.0 mi SE 11.5 mph 16.1 mph N/A   Clear
8:53 AM 58.3 °F 48.6 °F 70% 29.91 in 10.0 mi SE 12.7 mph - N/A   Clear
9:13 AM 59.9 °F 48.7 °F 67% 29.91 in 10.0 mi SE 10.4 mph 18.4 mph N/A   Clear
9:33 AM 60.8 °F 48.6 °F 64% 29.92 in 10.0 mi SE 10.4 mph 17.3 mph N/A   Clear
9:53 AM 61.5 °F 48.9 °F 63% 29.92 in 10.0 mi SE 8.1 mph - N/A   Clear
10:13 AM 63.9 °F 48.9 °F 58% 29.92 in 10.0 mi SE 12.7 mph 16.1 mph N/A   Clear
10:32 AM 66.0 °F 48.4 °F 53% 29.92 in 10.0 mi SE 15.0 mph 23.0 mph N/A   Clear
10:53 AM 65.8 °F 48.2 °F 53% 29.91 in 10.0 mi SE 15.0 mph 20.7 mph N/A   Clear
11:13 AM 67.3 °F 48.6 °F 51% 29.91 in 10.0 mi SE 13.8 mph 18.4 mph N/A   Clear
11:33 AM 68.2 °F 48.4 °F 49% 29.90 in 10.0 mi SSE 10.4 mph 19.6 mph N/A   Clear
11:53 AM 68.9 °F 48.6 °F 48% 29.90 in 10.0 mi SSE 12.7 mph 23.0 mph N/A   Clear
12:13 PM 69.8 °F 48.4 °F 46% 29.89 in 10.0 mi SSE 13.8 mph 24.2 mph N/A   Clear
12:32 PM 70.7 °F 48.4 °F 45% 29.89 in 10.0 mi SSE 16.1 mph 21.9 mph N/A   Clear
12:53 PM 71.6 °F 48.2 °F 43% 29.89 in 10.0 mi SE 18.4 mph 24.2 mph N/A   Clear
1:13 PM 72.1 °F 48.7 °F 43% 29.88 in 10.0 mi SE 19.6 mph 25.3 mph N/A   Clear
1:32 PM 72.9 °F 48.4 °F 42% 29.87 in 10.0 mi SSE 13.8 mph 20.7 mph N/A   Clear
1:53 PM 73.8 °F 47.8 °F 40% 29.87 in 10.0 mi SSE 13.8 mph 18.4 mph N/A   Clear
2:12 PM 74.1 °F 48.0 °F 40% 29.86 in 10.0 mi SSE 12.7 mph 25.3 mph N/A   Clear
2:33 PM 75.0 °F 46.4 °F 36% 29.86 in 10.0 mi SE 13.8 mph 25.3 mph N/A   Clear
2:52 PM 75.4 °F 46.8 °F 36% 29.85 in 10.0 mi SE 20.7 mph 24.2 mph N/A   Clear
3:12 PM 75.6 °F 46.2 °F 35% 29.85 in 10.0 mi SSE 11.5 mph 21.9 mph N/A   Clear
3:33 PM 75.6 °F 45.9 °F 35% 29.84 in 10.0 mi SE 15.0 mph 23.0 mph N/A   Clear
3:52 PM 75.2 °F 45.9 °F 35% 29.84 in 10.0 mi SE 17.3 mph 25.3 mph N/A   Clear
4:13 PM 75.6 °F 46.0 °F 35% 29.84 in 10.0 mi SE 13.8 mph 21.9 mph N/A   Clear
4:32 PM 74.8 °F 46.2 °F 36% 29.84 in 10.0 mi SE 17.3 mph 23.0 mph N/A   Clear
4:53 PM 75.2 °F 47.3 °F 37% 29.84 in 10.0 mi SE 13.8 mph 20.7 mph N/A   Clear
5:13 PM 75.0 °F 46.9 °F 37% 29.84 in 10.0 mi SE 16.1 mph 19.6 mph N/A   Clear
5:32 PM 74.7 °F 46.9 °F 37% 29.85 in 10.0 mi ESE 13.8 mph 19.6 mph N/A   Clear
5:53 PM 73.9 °F 47.5 °F 39% 29.85 in 10.0 mi SE 12.7 mph 18.4 mph N/A   Clear
6:12 PM 73.4 °F 47.7 °F 40% 29.85 in 10.0 mi SE 12.7 mph 18.4 mph N/A   Clear
6:33 PM 71.8 °F 47.8 °F 43% 29.85 in 10.0 mi ESE 9.2 mph 18.4 mph N/A   Clear
6:52 PM 69.4 °F 48.7 °F 48% 29.85 in 10.0 mi ESE 11.5 mph - N/A   Clear
7:13 PM 67.3 °F 49.1 °F 52% 29.86 in 10.0 mi ESE 9.2 mph - N/A   Clear
7:33 PM 65.8 °F 48.9 °F 54% 29.87 in 10.0 mi ESE 8.1 mph - N/A   Clear
7:52 PM 64.6 °F 49.1 °F 57% 29.88 in 10.0 mi ESE 6.9 mph - N/A   Clear
8:13 PM 61.3 °F 49.3 °F 65% 29.89 in 10.0 mi ESE 6.9 mph - N/A   Clear
8:32 PM 61.3 °F 49.3 °F 65% 29.89 in 10.0 mi ESE 5.8 mph - N/A   Clear
8:53 PM 59.9 °F 49.1 °F 67% 29.90 in 10.0 mi ESE 5.8 mph - N/A   Clear
9:13 PM 60.3 °F 49.1 °F 67% 29.91 in 10.0 mi ESE 8.1 mph - N/A   Clear
9:32 PM 60.8 °F 49.1 °F 65% 29.91 in 10.0 mi ESE 9.2 mph - N/A   Clear
9:53 PM 58.3 °F 49.1 °F 71% 29.91 in 10.0 mi ESE 8.1 mph - N/A   Clear
10:13 PM 57.6 °F 49.3 °F 74% 29.91 in 10.0 mi ESE 10.4 mph - N/A   Clear
10:33 PM 57.7 °F 49.3 °F 73% 29.90 in 10.0 mi ESE 10.4 mph - N/A   Clear
10:52 PM 57.2 °F 49.1 °F 74% 29.91 in 10.0 mi ESE 9.2 mph - N/A   Clear
11:12 PM 57.6 °F 49.5 °F 74% 29.91 in 10.0 mi ESE 10.4 mph - N/A   Clear
11:33 PM 58.5 °F 49.8 °F 73% 29.91 in 10.0 mi ESE 10.4 mph - N/A   Clear
11:53 PM 58.3 °F 50.0 °F 74% 29.91 in 10.0 mi ESE 9.2 mph - N/A   Clear